Meteo Giornale » Osservazioni meteo Stati Uniti (USA) » Wildwood

ore: 01:56 - Osservazioni Meteo Wildwood
Lat. 39° 1' N Lon. 74° 55' W Alt. 7 metri s.l.m.

nuvoloso

23 °C

Nuvoloso

Temp. 24 Ore

23 °C

27 °C

Sud-Est

7.4 Km/h

Dew point 22 °C

Umidità 94 %

Visibilità  10 Km

Il sole sorge alle ore 06:28

Il sole tramonta alle ore 19:30

Data e Ora Cielo e Fenomeni T °C DP °C Um. % Pres. hPa Vis. km Vento km/h
Oggi h: 01:56 nuvoloso Nuvoloso 23 22 94 1018 10 SE 7.4
Oggi h: 00:56 sereno Sereno 24 23 94 1018 10 N 0
Ieri h: 23:56 sereno Sereno 24 23 94 1018 10 N 5.5
Ieri h: 22:56 sereno Sereno 23 23 100 1018 10 N 5.5
Ieri h: 21:56 sereno Sereno 24 23 94 1018 10 S 9.3
Ieri h: 20:56 sereno Sereno 24 23 94 1019 10 S 9.3
Ieri h: 19:56 poco_nuvoloso Poco Nuvoloso 24 22 88 1018 10 N 5.5
Ieri h: 18:56 poco_nuvoloso Poco Nuvoloso 24 22 88 1019 10 S/SE 13
Ieri h: 17:56 molto_nuvoloso Molto Nuvoloso 25 22 83 1019 10 E/SE 11.1
Ieri h: 17:36 nuvoloso Nuvoloso 26 22 78 1019 10 E 13
Ieri h: 16:56 poco_nuvoloso Poco Nuvoloso 27 22 74 1019 10 E 16.7
Ieri h: 15:56 molto_nuvoloso Molto Nuvoloso 27 22 74 1019 10 E/NE 13
Ieri h: 14:56 poco_nuvoloso Poco Nuvoloso 27 22 74 1019 10 E 7.4
Ieri h: 13:56 molto_nuvoloso Molto Nuvoloso 27 23 78 1019 10 N 9.3
Ieri h: 12:56 coperto Coperto 26 22 78 1019 10 E 13
Ieri h: 11:56 sereno Sereno 26 23 83 1020 10 E 11.1
Ieri h: 10:56 molto_nuvoloso Molto Nuvoloso 26 22 78 1020 10 E 16.7
Ieri h: 09:56 nuvoloso Nuvoloso 25 23 88 1020 10 E 9.3
Ieri h: 08:56 molto_nuvoloso Molto Nuvoloso 23 22 94 1020 10 NE 9.3
Ieri h: 07:56 sereno Sereno 23 23 100 1019 14 N 5.5
Ieri h: 06:56 coperto_pioggia Pioggia 23 23 100 1019 11 NE 7.4
Ieri h: 06:41 coperto_pioggia Pioggia 23 23 100 1019 14 N 7.4
Ieri h: 06:11 coperto Coperto 23 23 100 1019 10 N 0
Ieri h: 05:56 coperto Coperto 23 23 100 1018 10 N 0
Ieri h: 05:13 coperto Coperto 23 23 100 1018 10 N 0
Ieri h: 04:56 nuvoloso_temporali Temporale nelle vicinanze Pioggia 23 23 100 1018 11 O 7.4
Ieri h: 04:47 coperto_pioggia Pioggia Foschia 23 23 100 1018 5 N 5.5
Ieri h: 04:33 coperto_pioggia Pioggia Foschia 23 22 94 1018 5 N 9.3
Ieri h: 04:31 coperto_pioggia Pioggia Foschia 23 22 94 1018 2 N 7.4
Ieri h: 04:16 coperto Coperto 24 23 94 1018 10 E 11.1
Ieri h: 03:56 molto_nuvoloso Molto Nuvoloso 24 23 94 1018 10 N 0
Ieri h: 03:22 coperto Coperto 24 23 94 1018 10 O 7.4
Ieri h: 02:56 molto_nuvoloso Molto Nuvoloso 24 23 94 1019 10 O/NO 9.3